Weather History for KANW - August, 2012

Change the Weather History Date:

Tuesday, August 21, 2012

  Actual Average Record
Temperature  
Mean Temperature 74 °F -  
Max Temperature 95 °F 83 °F 98 °F (2010)
Min Temperature 53 °F 59 °F 51 °F (2004)
Cooling Degree Days 9    
Growing Degree Days 24 (Base 50)    
Moisture  
Dew Point 48 °F    
Average Humidity 48    
Maximum Humidity 89    
Minimum Humidity 16    
Precipitation  
Precipitation 0.00 in - - ()
Sea Level Pressure  
Sea Level Pressure 29.98 in    
Wind  
Wind Speed 7 mph (SSE)    
Max Wind Speed 16 mph    
Max Gust Speed 22 mph    
Visibility 10 miles    
Events      
Averages and records for this station are not official NWS values.
T = Trace of Precipitation, MM = Missing Value Source: NWS Daily Summary

Daily Weather History Graph

Daily Weather History Graph

Search for Another Location

Airport or City:

Trip Planner

Search our weather history database for the weather conditions in past years. The results will help you decide how hot, cold, wet, or windy it might be!

Date:

Astronomy

Aug. 21, 2012 Rise Set
Actual Time 6:53 AM CDT 8:31 PM CDT
Civil Twilight 6:23 AM CDT 9:01 PM CDT
Nautical Twilight 5:47 AM CDT 9:37 PM CDT
Astronomical Twilight 5:08 AM CDT 10:15 PM CDT
Moon 11:34 AM CDT (8/21) 10:24 PM CDT (8/21)
Length of Visible Light 14h 37m
Length of Day
13h 37m
Waxing Crescent, 19% of the Moon is Illuminated
Aug 21
Waxing Crescent
Aug 24
First Quarter
Aug 31
Full
Sep 8
Last Quarter
Sep 15
New

Hourly Weather History & Observations

Time (CDT) Temp. Dew Point Humidity Pressure Visibility Wind Dir Wind Speed Gust Speed Precip Events Conditions
12:15 AM 58.6 °F 51.3 °F 76% 30.04 in 10.0 mi ESE 5.8 mph - N/A   Clear
12:35 AM 58.3 °F 50.7 °F 76% 30.04 in 10.0 mi East 4.6 mph - N/A   Clear
12:55 AM 57.9 °F 50.4 °F 76% 30.04 in 10.0 mi East 5.8 mph - N/A   Clear
1:15 AM 56.5 °F 50.5 °F 80% 30.04 in 10.0 mi ENE 4.6 mph - N/A   Clear
1:35 AM 55.6 °F 50.4 °F 83% 30.04 in 10.0 mi ESE 6.9 mph - N/A   Clear
1:55 AM 55.6 °F 50.4 °F 83% 30.04 in 10.0 mi East 5.8 mph - N/A   Clear
2:15 AM 54.9 °F 50.2 °F 84% 30.04 in 10.0 mi East 6.9 mph - N/A   Clear
2:35 AM 54.5 °F 50.0 °F 85% 30.04 in 10.0 mi East 5.8 mph - N/A   Clear
2:55 AM 53.8 °F 50.2 °F 88% 30.04 in 10.0 mi East 5.8 mph - N/A   Clear
3:15 AM 53.8 °F 50.0 °F 87% 30.04 in 10.0 mi East 5.8 mph - N/A   Clear
3:35 AM 53.1 °F 49.6 °F 88% 30.03 in 10.0 mi East 4.6 mph - N/A   Clear
3:55 AM 53.1 °F 50.0 °F 89% 30.03 in 10.0 mi ESE 4.6 mph - N/A   Clear
4:15 AM 54.0 °F 49.5 °F 85% 30.03 in 10.0 mi SE 5.8 mph - N/A   Clear
4:35 AM 54.7 °F 49.5 °F 83% 30.03 in 10.0 mi SE 5.8 mph - N/A   Clear
4:55 AM 55.9 °F 49.5 °F 79% 30.02 in 10.0 mi SE 4.6 mph - N/A   Clear
5:15 AM 56.3 °F 50.0 °F 79% 30.02 in 10.0 mi SE 5.8 mph - N/A   Clear
5:35 AM 56.8 °F 50.0 °F 78% 30.02 in 10.0 mi SE 5.8 mph - N/A   Clear
5:55 AM 56.1 °F 50.2 °F 80% 30.01 in 10.0 mi SE 6.9 mph - N/A   Clear
6:15 AM 56.3 °F 50.4 °F 80% 30.01 in 10.0 mi SE 5.8 mph - N/A   Clear
6:35 AM 54.3 °F 49.5 °F 84% 30.02 in 10.0 mi SE 4.6 mph - N/A   Clear
6:55 AM 53.8 °F 49.5 °F 85% 30.01 in 10.0 mi SE 4.6 mph - N/A   Clear
7:15 AM 54.0 °F 50.0 °F 86% 30.01 in 10.0 mi SSE 4.6 mph - N/A   Clear
7:35 AM 54.5 °F 50.2 °F 85% 30.02 in 10.0 mi Calm Calm - N/A   Clear
7:55 AM 57.4 °F 50.9 °F 79% 30.01 in 10.0 mi SSE 5.8 mph - N/A   Clear
8:15 AM 58.6 °F 50.9 °F 75% 30.01 in 10.0 mi SSE 3.5 mph - N/A   Clear
8:35 AM 60.8 °F 51.6 °F 72% 30.01 in 10.0 mi SSE 5.8 mph - N/A   Clear
8:55 AM 64.2 °F 51.8 °F 64% 30.01 in 10.0 mi SSE 8.1 mph - N/A   Clear
9:15 AM 67.5 °F 50.2 °F 54% 30.01 in 10.0 mi South 5.8 mph - N/A   Clear
9:35 AM 70.0 °F 50.7 °F 50% 30.01 in 10.0 mi SSW 4.6 mph - N/A   Clear
9:55 AM 71.8 °F 50.2 °F 46% 30.01 in 10.0 mi SW 3.5 mph - N/A   Clear
10:15 AM 74.3 °F 50.0 °F 42% 30.01 in 10.0 mi Calm Calm - N/A   Clear
10:35 AM 75.9 °F 49.8 °F 40% 30.02 in 10.0 mi Calm Calm - N/A   Clear
10:55 AM 78.3 °F 48.9 °F 36% 30.02 in 10.0 mi Calm Calm - N/A   Clear
11:15 AM 80.2 °F 48.4 °F 33% 30.02 in 10.0 mi SE 3.5 mph - N/A   Clear
11:35 AM 81.7 °F 49.6 °F 33% 30.02 in 10.0 mi East 5.8 mph - N/A   Clear
11:55 AM 82.9 °F 49.6 °F 31% 30.02 in 10.0 mi SSE 5.8 mph - N/A   Clear
12:15 PM 84.0 °F 49.3 °F 30% 30.01 in 10.0 mi ESE 5.8 mph - N/A   Clear
12:35 PM 85.5 °F 50.2 °F 29% 30.01 in 10.0 mi ESE 9.2 mph - N/A   Clear
12:55 PM 86.2 °F 49.5 °F 28% 30.01 in 10.0 mi SE 10.4 mph - N/A   Clear
1:15 PM 87.4 °F 49.3 °F 27% 29.99 in 10.0 mi East 9.2 mph - N/A   Clear
1:35 PM 88.3 °F 49.5 °F 26% 29.99 in 10.0 mi SE 10.4 mph - N/A   Clear
1:55 PM 90.5 °F 45.5 °F 21% 29.98 in 10.0 mi South 10.4 mph 16.1 mph N/A   Clear
2:15 PM 91.8 °F 44.2 °F 19% 29.98 in 10.0 mi SSW 9.2 mph 16.1 mph N/A   Clear
2:35 PM 91.0 °F 43.0 °F 19% 29.97 in 10.0 mi Calm Calm - N/A   Clear
2:55 PM 91.0 °F 43.7 °F 19% 29.97 in 10.0 mi South 11.5 mph - N/A   Clear
3:15 PM 92.1 °F 43.5 °F 19% 29.95 in 10.0 mi SE 6.9 mph 16.1 mph N/A   Clear
3:35 PM 93.0 °F 42.8 °F 18% 29.95 in 10.0 mi SSE 8.1 mph 16.1 mph N/A   Clear
3:55 PM 92.8 °F 42.4 °F 17% 29.94 in 10.0 mi SSE 4.6 mph 16.1 mph N/A   Clear
4:15 PM 93.9 °F 42.8 °F 17% 29.93 in 10.0 mi SSE 11.5 mph 17.3 mph N/A   Clear
4:35 PM 94.6 °F 43.2 °F 17% 29.92 in 10.0 mi South 12.7 mph 17.3 mph N/A   Scattered Clouds
4:55 PM 94.1 °F 42.8 °F 17% 29.92 in 10.0 mi South 10.4 mph - N/A   Clear
5:15 PM 95.0 °F 42.4 °F 16% 29.92 in 10.0 mi South 5.8 mph 10.4 mph N/A   Clear
5:35 PM 93.7 °F 42.8 °F 17% 29.91 in 10.0 mi South 11.5 mph - N/A   Clear
5:55 PM 94.5 °F 43.0 °F 17% 29.91 in 10.0 mi South 15.0 mph 19.6 mph N/A   Clear
6:15 PM 93.4 °F 43.3 °F 18% 29.90 in 10.0 mi South 16.1 mph - N/A   Clear
6:35 PM 93.2 °F 43.0 °F 18% 29.90 in 10.0 mi SSE 11.5 mph 18.4 mph N/A   Clear
6:55 PM 92.3 °F 42.8 °F 18% 29.89 in 10.0 mi South 13.8 mph 21.9 mph N/A   Clear
7:15 PM 91.4 °F 43.3 °F 19% 29.89 in 10.0 mi South 11.5 mph - N/A   Clear
7:35 PM 89.8 °F 43.7 °F 20% 29.89 in 10.0 mi South 11.5 mph - N/A   Clear
7:55 PM 87.4 °F 43.9 °F 22% 29.89 in 10.0 mi South 10.4 mph - N/A   Clear
8:15 PM 85.8 °F 44.8 °F 24% 29.89 in 10.0 mi SSE 9.2 mph - N/A   Clear
8:35 PM 83.1 °F 46.6 °F 28% 29.89 in 10.0 mi SSE 9.2 mph - N/A   Clear
8:55 PM 80.2 °F 47.3 °F 31% 29.89 in 10.0 mi SSE 8.1 mph - N/A   Clear
9:15 PM 79.0 °F 47.7 °F 33% 29.89 in 10.0 mi SSE 9.2 mph - N/A   Clear
9:35 PM 78.8 °F 48.6 °F 34% 29.90 in 10.0 mi South 10.4 mph - N/A   Clear
9:55 PM 77.7 °F 50.0 °F 38% 29.90 in 10.0 mi South 11.5 mph - N/A   Clear
10:15 PM 75.6 °F 50.2 °F 41% 29.90 in 10.0 mi South 9.2 mph - N/A   Clear
10:35 PM 75.2 °F 50.2 °F 41% 29.90 in 10.0 mi South 10.4 mph - N/A   Clear
10:55 PM 75.7 °F 50.0 °F 40% 29.91 in 10.0 mi South 12.7 mph - N/A   Clear
11:15 PM 76.1 °F 50.0 °F 40% 29.91 in 10.0 mi South 15.0 mph - N/A   Clear
11:35 PM 76.1 °F 49.6 °F 39% 29.91 in 10.0 mi South 13.8 mph - N/A   Clear
11:55 PM 75.4 °F 50.0 °F 41% 29.91 in 10.0 mi South 12.7 mph - N/A   Clear